Вернуться в каталог

FENGYUN 1C DEB

АктивенSSO
NORAD 31475·DEBRIS·🇨🇳 China

Запущен May 10, 1999 с Taiyuan Satellite Launch Center

Loading…

Ближайшие Пролёты (ближайшие 24 часа)

TLE

УстаревающийSource: Space-Track

Эпоха: Sep 7, 2026, 00:13 UTC

1 31475U 99025BVP 26250.00907311  .00001870  00000-0  47760-3 0  9994
2 31475  98.9144 154.8267 0208579  34.8097 326.6532 14.39578743999377

Отслеживайте FENGYUN 1C DEB в реальном времени с AllMySat

Download on the App Store